User: anonymous   Login
Location: Santa Barbara
(34.4500°N, 119.7700°W)
Time: 10:51:26
(UTC-07:00)
Language:

Cosmos 1626 Rocket - Orbit

View from above orbital plane
View from above orbital plane
View from above satellite
View from above satellite

Ground track
Ground track

The orbit data is extracted from the following two-line orbital elements,

1 15495U 85009B   15091.42851766  .00000754  00000-0  88363-4 0  9999
2 15495 082.5254 223.9451 0021641 113.3605 246.9889 14.83508975630196
Epoch (UTC): 01 April 2015 10:17:03
Eccentricity: 0.0021641
inclination: 82.5254°
perigee height: 603 km
apogee height: 633 km
right ascension of ascending node: 223.9451°
argument of perigee: 113.3605°
revolutions per day: 14.83508975
mean anomaly at epoch: 246.9889°
orbit number at epoch: 63019

The dashed part of the orbit path shows where the satellite is in the earth's shadow,  

DLR